Location: *
(46.1200°N, 11.2700°E)
Time: 19:33:55
(UTC+00:00)

MOS 1 - Pass Details

Date: 02 March 2021
Orbit: 878 x 891 km, 99.1° (Epoch: 19 April)

Event Time Altitude Azimuth Distance (km) Brightness Sun altitude
Exits shadow 19:28:09 34° 178° (S) 1,433 5.2 -25.7°
Maximum altitude 19:30:45 74° 256° (WSW) 927 4.4 -26.1°
Drops below altitude 10° 19:36:27 10° 342° (NNW) 2,559 7.1 -27.1°
Sets 19:38:52 0° 344° (NNW) 3,500 7.9 -27.5°
